STARLINK-35947

Last updated on Fri Dec 19 2025 00:02:08 GMT+0000 (Coordinated Universal Time)

1 66883U 25283F 25352.58336806 -.01295104 00000+0 -81328-2 0 9994 2 66883 53.1555 44.4273 0001061 64.6272 64.3344 15.78985521 3419
UTC large
Height (km)
Speed (km/s)
/
Latitude / Longitude
Inclination (degrees)
Orbital Period (minutes)
Azimuth
Elevation
Range (km)
Doppler Factor

Next 0 passes for location: London (51.5072 / 0.1276)

Sorry there are no passes over London.